Regional Weather Roundup
Issued by NWS

Home | Current Version | Previous Version | Graphics & Text | Print | Product List | Glossary On
Versions: 1 2 3 4 5 6 7 8 9 10 11 12 13 14 15 16 17 18 19 20 21 22 23 24 25 26 27 28 29 30 31 32 33 34 35 36 37 38 39 40 41 42 43 44 45 46 47 48 49 50
000
ASUS43 KMPX 221010
RWRMN
WEATHER ROUNDUP FOR MINNESOTA
NATIONAL WEATHER SERVICE TWIN CITIES/CHANHASSEN MN
500 AM CDT FRI AUG 22 2014


NOTE: "FAIR" INDICATES FEW OR NO CLOUDS BELOW 12,000 FEET WITH NO
SIGNIFICANT WEATHER AND/OR OBSTRUCTIONS TO VISIBILITY. N/A MEANS
CURRENT SKY AND/OR WEATHER CONDITIONS ARE NOT AVAILABLE.

MNZ060>063-068>070-221100-
   Twin Cities Metro

CITY           SKY/WX    TMP DP  RH WIND       PRES   REMARKS
TWIN CITIES    CLOUDY    72  71  97 NW6       29.89R
ST PAUL        CLOUDY    72  70  93 NW8       29.89R
CRYSTAL        CLOUDY    72  69  90 NW3       29.89R FOG
BLAINE         CLOUDY    72  72 100 NW5       29.90R FOG
LAKEVILLE      FOG       70  68  94 W3        29.89S VSB 3/4
EDEN PRAIRIE   CLOUDY    71  70  96 N5        29.89R FOG
SOUTH ST PAUL  MOCLDY    72  70  94 NW6       29.89R FOG
LAKE ELMO      CLOUDY    72  72 100 NW6       29.90R FOG
$$
MNZ001>005-007-008-013>017-022>024-027-028-221100-
   Northwest Minnesota

CITY           SKY/WX    TMP DP  RH WIND       PRES   REMARKS
BEMIDJI        CLOUDY    66  65  96 CALM      29.93S
HALLOCK        MOCLDY    66  64  94 CALM      29.93R
ROSEAU         CLOUDY    66  61  82 CALM      29.93R
WARROAD        CLOUDY    66  64  94 E5        29.94R
THIEF RVR FALL CLOUDY    66  66 100 CALM      29.92R
CROOKSTON      FOG       68  66  94 CALM      29.92R VSB 1
FOSSTON        CLOUDY    66  63  88 CALM      29.93S
DETROIT LAKES  FOG       68  66  94 CALM      29.93S VSB 1/2
MOORHEAD       FOG       64  64 100 CALM      29.92R VSB<1/4
PARK RAPIDS    CLOUDY    67  67 100 CALM      29.93R
MAHNOMEN       CLOUDY    66  66  99 CALM      29.91S FOG
$$
MNZ006-009>011-018-025>026-221100-
   North Central Minnesota

CITY           SKY/WX    TMP DP  RH WIND       PRES   REMARKS
BAUDETTE       CLOUDY    65  62  90 E5        29.93S
FLAG ISLAND    CLOUDY    66  64  94 NE3       29.93R
INTL FALLS     CLOUDY    64  60  87 E5        29.95R
WASKISH        CLOUDY    64  64 100 CALM      29.94R
BIG FORK       MOCLDY    64  63  94 NE3       29.94S
LONGVILLE      CLOUDY    64  64 100 CALM      29.93R FOG
GRAND RAPIDS   CLOUDY    63  61  94 CALM      29.93S
CRANE LAKE     CLOUDY    61  61 100 CALM      29.96S
ORR            CLOUDY    63  57  82 CALM      29.92S
COOK           CLOUDY    63  61  94 CALM      29.95R
WALKER         CLOUDY    66  65  97 CALM      29.93R
$$
MNZ012-019>021-037-221100-
   Northeast Minnesota

CITY           SKY/WX    TMP DP  RH WIND       PRES   REMARKS
DULUTH         DRZL/FOG  63  61  93 SE5       29.93R VSB 1/2
ELY            CLOUDY    61  61 100 NE3       29.95S FOG
HIBBING        CLOUDY    65  61  87 CALM      29.93S
EVELETH        CLOUDY    63  61  94 CALM      29.94S
DULUTH HARBOR  LGT RAIN  61  59  94 NE16      29.93R
TWO HARBORS    CLOUDY    61  55  82 NE5       29.91S HAZE
SILVER BAY     CLOUDY    57  57 100 NE8       29.92R
GRAND MARAIS     N/A     61  60  97 NE7       29.93S
G MARAIS ARPRT FOG       59  55  88 NE7       29.98S VSB 1/2
$$
MNZ029>031-032-039>041-046>048-054>057-064-221100-
   West Central Minnesota

CITY           SKY/WX    TMP DP  RH WIND       PRES   REMARKS
FERGUS FALLS   CLOUDY    66  66 100 CALM      29.92R FOG
WHEATON        FOG       63  63 100 CALM      29.93R VSB 1/2
MORRIS         FOG       68  66  94 CALM      29.91R VSB<1/4
ALEXANDRIA     CLOUDY    68  67  96 E6        29.95R FOG
ELBOW LAKE     MOCLDY    67  67  99 SE3       29.92R
WADENA         FOG       66  66 100 CALM      29.93R VSB 1
GLENWOOD       FOG       68  66  94 CALM      29.94R VSB 1
APPLETON       FOG       68  66  94 CALM      29.91R VSB<1/4
BENSON         CLOUDY    66  66 100 CALM      29.92R FOG
ORTONVILLE     CLEAR     66  64  94 CALM      29.91R
MADISON        CLEAR     68  66  94 CALM      29.91R FOG
WILLMAR        LGT RAIN  72  70  94 CALM      29.93R VSB<1/4
$$
MNZ033>034-036-042>043-049>051-058-059-221100-
   Central Minnesota

CITY           SKY/WX    TMP DP  RH WIND       PRES   REMARKS
ST CLOUD       CLOUDY    70  68  93 N6        29.91R
SAUK CENTRE    FOG       68  67  99 CALM      29.93R VSB 1/4
PAYNESVILLE    CLOUDY    66  67 100 CALM      29.93R FOG
AITKIN         HAZE      64  61  88 CALM      29.92R VSB 1/4
PINE RIVER     CLOUDY    64  64 100 CALM      29.96R FOG
BRAINERD       CLOUDY    64  64 100 CALM      29.94R FOG
STAPLES        CLOUDY    66  64  94 CALM      29.94R FOG
LONG PRAIRIE   FOG       66  66 100 CALM      29.94R VSB 1/2
LITTLE FALLS   CLOUDY    64  64 100 CALM      29.92S FOG
LITCHFIELD     FOG       72  72 100 CALM      29.93R VSB 1/2
BUFFALO        CLOUDY    70  68  93 NW3       29.92R FOG
MAPLE LAKE     CLOUDY    71  70  98 CALM      29.92R FOG
$$
MNZ037-044-045-052-053-221100-
   East Central Minnesota

CITY           SKY/WX    TMP DP  RH WIND       PRES   REMARKS
PRINCETON      CLOUDY    66  66 100 CALM      29.91R FOG
MORA           CLOUDY    61  61 100 CALM      29.93R FOG
CAMBRIDGE      HAZE      66  59  77 N3        29.89R VSB 1
RUSH CITY      CLOUDY    63  62  96 N5        29.90S FOG
MOOSE LAKE     DRIZZLE   61  59  94 NE5       29.91R
HINCKLEY       CLOUDY    63  63 100 N5        29.91R FOG
CLOQUET        FOG       61  61 100 CALM      29.93R VSB 1/2
MCGREGOR       CLOUDY    63  61  94 CALM      29.93R
$$
MNZ071>073-080-081-089-090-097-098-221100-
   Southwest Minnesota

CITY           SKY/WX    TMP DP  RH WIND       PRES   REMARKS
MONTEVIDEO     FOG       70  70 100 CALM      29.92R VSB<1/4
GRANITE FALLS  FOG       68  68 100 CALM      29.93R VSB<1/4
CANBY          CLEAR     65  64  96 CALM      29.93R
MARSHALL       CLEAR     64  63  94 CALM      29.92R
REDWOOD FALLS  FOG       71  70  96 CALM      29.91R VSB 1/2
OLIVIA         FOG       70  68  94 CALM      29.92R VSB 1/2
PIPESTONE      CLEAR     66  64  94 CALM      29.95R
WINDOM         MOCLDY    68  66  94 NW3       29.92S FOG
WORTHINGTON    CLEAR     64   9  11 NW3       29.94S
JACKSON        PTCLDY    66  63  88 CALM      29.92S FOG
TRACY          CLEAR     70  68  95 CALM      29.93R
SLAYTON        CLEAR     65  64  99 CALM      29.95R
$$
MNZ065>067-074>077-082>085-091>093-221100-
   South Central Minnesota

CITY           SKY/WX    TMP DP  RH WIND       PRES   REMARKS
MANKATO        CLOUDY    72  66  83 NE3       29.91R VSB 1/4
NEW ULM        FOG       72  72 100 N6        29.91R VSB 1/4
ST JAMES       FOG       70  68  94 CALM      29.92R VSB<1/4
FAIRMONT       CLOUDY    66  63  88 MISG      29.90S
GLENCOE        FOG       70  67  91 CALM      29.91R VSB 1/4
FARIBAULT      CLOUDY    73  70  88 CALM      29.91R HAZE
OWATONNA       CLOUDY    73  72  94 NW5       29.90S FOG
WASECA         FOG       72  68  88 CALM      29.92S VSB 1/4
ALBERT LEA     CLOUDY    72  72 100 CALM      29.89F VSB<1/4
$$
MNZ078>079-086>088-094>096-221100-
   Southeast Minnesota

CITY           SKY/WX    TMP DP  RH WIND       PRES   REMARKS
ROCHESTER      PTCLDY    71  69  93 W3        29.90S FOG
RED WING       CLOUDY    73  72  94 NW7       29.87R FOG
STANTON        CLOUDY    72  70  93 CALM      29.88S FOG
DODGE CENTER   FOG       72  72 100 W5        29.90S VSB 1/4
WINONA         MOCLDY    73  72  94 CALM      29.87R
AUSTIN         CLOUDY    70  70 100 CALM      29.89S VSB 1/4
PRESTON        MOCLDY    70  70 100 SW5       29.89F FOG
$$
ABBREVIATIONS USED IN REMARKS
   TC - TEMPERATURES IN CELSIUS
  WCI - WIND CHILL INDEX
   HX - HEAT INDEX
  VSB - VISIBILITY
$$


USA.gov is the U.S. government's official web portal to all federal, state and local government web resources and services.